Location: Kuala Lumpur International
(3.1298°N, 101.5524°E)
Time: 09:38:31
(UTC+00:00)

Cosmos 1386 Rocket - Pass Details

Date: 05 August 2024
Orbit: 930 x 1004 km, 83.0° (Epoch: 14 September)

Event Time Altitude Azimuth Distance (km) Brightness Sun altitude
Rises 21:40:20 0° 353° (N) 3,697 7.7 -22.7°
Reaches altitude 10° 21:42:50 10° 351° (N) 2,756 7.0 -22.1°
Maximum altitude 21:49:10 73° 268° (W) 1,043 4.4 -20.7°
Drops below altitude 10° 21:55:32 10° 183° (S) 2,774 6.7 -19.1°
Sets 21:58:04 0° 181° (S) 3,722 7.3 -18.5°
